sat.trackr.live / text

‹ back to catalog

GSAT0221 (GALILEO 25)

NORAD 43564 · 2018-060A

PAYLOAD ACTIVE UNKNOWN

§ Identity

Operator
Country
ESA
Launch date
2018-07-25
Launch site
FRGUI
Launch vehicle
Mass (kg)
RCS (m²)

Purposes: earth_obs, nav

External: N2YO · Heavens-Above · Gunter

§ Orbital elements

Epoch: 2026-09-03T01:56:03.367392Z

Period
844.69 min
Inclination
57.1381°
Eccentricity
0.0004460
Mean motion
1.70475994 rev/d
Perigee alt
23,208.8 km
Apogee alt
23,235.2 km
Semi-major
29,600.1 km
B*
0.0000e+0
RAAN
339.6782°
Arg perigee
268.0003°
Mean anomaly
91.9918°
Rev number
5,049

§ Raw data

GSAT0221 (GALILEO 25)1 43564U 18060A   26246.08059453 -.00000082  00000+0  00000+0 0  99902 43564  57.1381 339.6782 0004460 268.0003  91.9918  1.70475994 50491

JSON: /api/v1/satellites/43564 · /tle

For live sub-satellite position, see the globe view (requires WebGL).

§ Visibility from observer

Set your observer location to see the next 7 days of passes ≥ 10°. The values pass through the URL so the page stays shareable.

No JS? Fill the form by hand. The geolocation button needs JavaScript.